Regional Weather Roundup
Issued by NWS

Home | Current Version | Previous Version | Text Only | Print | Product List | Glossary On
Versions: 1 2 3 4 5 6 7 8 9 10 11 12 13 14 15 16 17 18 19 20 21 22 23 24 25 26 27
000
ASUS45 KBOU 231007
RWRCO

WEATHER ROUNDUP FOR COLORADO
NATIONAL WEATHER SERVICE DENVER/BOULDER CO
400 AM MDT WED AUG 23 2017

NOTE: "FAIR" INDICATES FEW OR NO CLOUDS BELOW 12000 FEET WITH NO
SIGNIFICANT WEATHER AND/OR OBSTRUCTIONS TO VISIBILITY.

COZ001>005-013-030-031-231100-
...NORTHWEST COLORADO...

CITY           SKY/WX    TMP DP  RH WIND       PRES   REMARKS
CRAIG          FAIR      55  42  61 CALM      30.32S
HAYDEN         FAIR      56  41  57 S3        30.35S
MEEKER         FAIR      55  44  66 NE9       30.33S
RABBIT EARS PA CLOUDY    52  36  54 SW9       30.59F
STEAMBOAT SPGS FAIR      52  41  64 CALM      30.35F
WALDEN         FAIR      48  37  66 CALM      30.44S
$$

COZ006>008-011-231100-
...WEST CENTRAL VALLEYS...

CITY           SKY/WX    TMP DP  RH WIND       PRES   REMARKS
GRAND JUNCTION FAIR      66  52  60 E14       30.21S
MONTROSE       FAIR      54  46  74 SE5       30.31S
EAGLE          FAIR      55  41  59 CALM      30.38S
RIFLE          FAIR      58  46  64 S3        30.28F
DELTA          FAIR      61  46  58 E5        30.27S
NUCLA          FAIR      55  45  67 SE6       30.34S
$$

COZ017>023-064>068-231100-
...SOUTHWEST COLORADO...

CITY           SKY/WX    TMP DP  RH WIND       PRES   REMARKS
DURANGO        FAIR      54  45  71 N7        30.37S
CORTEZ         FAIR      52  48  86 CALM      30.30S
PAGOSA SPRINGS FAIR      50  47  89 CALM      30.46S
TELLURIDE      FAIR      49  43  79 SE6       30.53S
WOLF CREEK PAS FAIR      41  37  87 SW9       30.74F
$$

COZ009-010-012-014-032>034-037-058>063-231100-
...CENTRAL COLORADO...

CITY           SKY/WX    TMP DP  RH WIND       PRES   REMARKS
ASPEN          MOCLDY    52  42  69 SW6       30.41F
BUENA VISTA    FAIR      44  40  86 CALM      30.45F
COPPER MTN     CLOUDY    52  34  50 CALM      30.69F
BERTHOUD PASS  CLOUDY    43  36  75 N6        30.72F
COTTONWOOD PAS FAIR      54  37  54 E6        30.55F
GUNNISON       FAIR      44  40  85 CALM      30.47S
KREMMLING      FAIR      54  43  66 CALM      30.42S
LEADVILLE      FAIR      37  34  89 NE3       30.55F
SALIDA         FAIR      55  45  69 NW8       30.49F
SUNLIGHT       CLOUDY    46  34  61 S5        30.64S
WILKERSON PASS CLOUDY    46  36  66 W7        30.66F
$$

COZ069>075-231100-
...SAN LUIS VALLEY/SANGRE DE CRISTO MOUNTAINS...

CITY           SKY/WX    TMP DP  RH WIND       PRES   REMARKS
ALAMOSA        FAIR      48  47  96 NW5       30.43S
DEL NORTE      FAIR      48  44  85 W13G18    30.47S
LA VETA PASS   NOT AVBL
SAGUACHE         N/A    N/A N/A N/A MISG        N/A
$$

COZ035-036-038>040-231100-
...NORTHERN COLORADO FRONT RANGE...

CITY           SKY/WX    TMP DP  RH WIND       PRES   REMARKS
DENVER INTL AP MOCLDY    63  48  58 S9        30.18F
DMNS CITY PARK   N/A     62  46  56 SE10      30.19S
AURORA         MOCLDY    64  49  57 S14       30.21S
FRONT RANGE AP FAIR      64  50  59 S14       30.20S
ERIE MUNI ARPT FAIR      61  49  66 CALM      30.22F
BOULDER MUN AP FAIR      64  46  52 CALM      30.18S
CENTENNIAL     FAIR      62  48  60 S9        30.22F
BROOMFIELD     FAIR      64  52  63 NW3       30.21F
FORT COLLINS   FAIR      60  56  86 N3        30.16F
LONGMONT       FAIR      61  49  64 CALM      30.18F
$$

COZ041-046-047-076>085-087-088-231100-
...PIKES PEAK/PALMER DIVIDE AND SOUTHERN FOOTHILLS...

CITY           SKY/WX    TMP DP  RH WIND       PRES   REMARKS
COLO. SPRINGS  MOCLDY    56  50  80 NE7       30.30F
A. F. ACADEMY  CLOUDY    57  50  77 CALM      30.31F
SCHRIEVER AFB  MOCLDY    54  48  80 NE3       30.30F
CHEYENNE MTN   FAIR      58  47  67 W7        30.28F
ELLICOTT       FAIR     N/A N/A N/A SE8       30.28F
FALCON         FAIR      56  49  78 SW3       30.34F
FORT CARSON    FAIR      54  51  88 N8        30.27F
LIMON          FAIR      53  53 100 S8        30.25F
MONUMENT HILL  FAIR      55  45  67 S15       30.33F
CANON CITY     CLEAR     63  50  63 NW8       30.24F
WALSENBURG     FAIR      61  48  63 W9        30.28F
TRINIDAD       FAIR      56  48  74 SW10      30.28F
$$

COZ042>045-048>051-090-091-231100-
...NORTHEAST COLORADO...

CITY           SKY/WX    TMP DP  RH WIND       PRES   REMARKS
GREELEY ARPT   FAIR      54  52  93 W5        30.16S
AKRON          FAIR      58  51  78 S10       30.17F
BURLINGTON     FAIR      56  52  86 S10       30.22F
WRAY           FAIR      59  48  67 SE12      30.19F
YUMA           FAIR      54  41  62 SE6       30.18F
STERLING       FAIR      59  54  82 S7        30.14S
HOLYOKE        FAIR      55  50  82 SE9       30.19F
FORT MORGAN    FAIR      57  53  88 CALM      30.16S
$$

COZ086-089-092>099-231100-
...SOUTHEAST COLORADO...

CITY           SKY/WX    TMP DP  RH WIND       PRES   REMARKS
PUEBLO         FAIR      57  50  77 N7        30.21F
LA JUNTA       FAIR      61  57  87 E8        30.20F
LAMAR          FAIR      62  56  80 S10       30.19F
SPRINGFIELD      N/A     60  60 100 SE7       30.25S
$$




USA.gov is the U.S. government's official web portal to all federal, state and local government web resources and services.